Satellite: MET-2/21
Catalog number: 22782
Epoch time: 14176.61638044
Element set: 92
Inclination: 082.5487 deg
RA of node: 166.6166 deg
Eccentricity: 0.0021163
Arg of perigee: 239.0409 deg
Mean anomaly: 258.1745 deg
Mean motion: 13.83738130 rev/day
Decay rate: 1.8e-07 rev/day^2
Epoch rev: 5128
Checksum: 299
Satellite: OKEAN-4
Catalog number: 23317
Epoch time: 14177.31817486
Element set: 570
Inclination: 082.5380 deg
RA of node: 059.3753 deg
Eccentricity: 0.0022018
Arg of perigee: 071.3685 deg
Mean anomaly: 039.2579 deg
Mean motion: 14.85547767 rev/day
Decay rate: 4.50e-06 rev/day^2
Epoch rev: 6446
Checksum: 319
Satellite: NOAA-14
Catalog number: 23455
Epoch time: 14177.49756569
Element set: 802
Inclination: 098.7782 deg
RA of node: 260.7690 deg
Eccentricity: 0.0009484
Arg of perigee: 020.2481 deg
Mean anomaly: 109.9403 deg
Mean motion: 14.13976786 rev/day
Decay rate: -1.5e-07 rev/day^2
Epoch rev: 526
Checksum: 327
Satellite: NOAA-15
Catalog number: 25338
Epoch time: 14177.46822292
Element set: 237
Inclination: 098.7523 deg
RA of node: 171.3086 deg
Eccentricity: 0.0011822
Arg of perigee: 119.6692 deg
Mean anomaly: 031.9234 deg
Mean motion: 14.25434762 rev/day
Decay rate: 8.7e-07 rev/day^2
Epoch rev: 83816
Checksum: 314
Satellite: RESURS
Catalog number: 25394
Epoch time: 14177.84665584
Element set: 689
Inclination: 098.4136 deg
RA of node: 141.8118 deg
Eccentricity: 0.0001184
Arg of perigee: 178.2445 deg
Mean anomaly: 238.7886 deg
Mean motion: 14.24395221 rev/day
Decay rate: -4.7e-07 rev/day^2
Epoch rev: 82969
Checksum: 343
Satellite: FENGYUN1
Catalog number: 25730
Epoch time: 14176.97649214
Element set: 177
Inclination: 098.9132 deg
RA of node: 138.0130 deg
Eccentricity: 0.0026642
Arg of perigee: 085.4287 deg
Mean anomaly: 317.1156 deg
Mean motion: 14.11922117 rev/day
Decay rate: 3.50e-06 rev/day^2
Epoch rev: 77876
Checksum: 301
Satellite: OKEAN-0
Catalog number: 25860
Epoch time: 14176.98695556
Element set: 286
Inclination: 098.0431 deg
RA of node: 140.7992 deg
Eccentricity: 0.0001714
Arg of perigee: 084.6763 deg
Mean anomaly: 315.5042 deg
Mean motion: 14.75288610 rev/day
Decay rate: 1.91e-06 rev/day^2
Epoch rev: 80345
Checksum: 316
Satellite: NOAA-16
Catalog number: 26536
Epoch time: 14177.42829893
Element set: 733
Inclination: 098.9899 deg
RA of node: 237.8330 deg
Eccentricity: 0.0011397
Arg of perigee: 155.7961 deg
Mean anomaly: 204.3748 deg
Mean motion: 14.13034473 rev/day
Decay rate: 1.04e-06 rev/day^2
Epoch rev: 70941
Checksum: 334
Satellite: NOAA-17
Catalog number: 27453
Epoch time: 14177.46321181
Element set: 633
Inclination: 098.3137 deg
RA of node: 176.6873 deg
Eccentricity: 0.0012698
Arg of perigee: 143.1721 deg
Mean anomaly: 217.0334 deg
Mean motion: 14.24752656 rev/day
Decay rate: 1.0e-07 rev/day^2
Epoch rev: 62400
Checksum: 287
Satellite: NOAA-18
Catalog number: 28654
Epoch time: 14177.47419749
Element set: 133
Inclination: 099.1482 deg
RA of node: 157.1600 deg
Eccentricity: 0.0013489
Arg of perigee: 235.1571 deg
Mean anomaly: 285.4795 deg
Mean motion: 14.12031600 rev/day
Decay rate: -2.0e-07 rev/day^2
Epoch rev: 46887
Checksum: 313
Satellite: NOAA-19
Catalog number: 33591
Epoch time: 14177.49510052
Element set: 286
Inclination: 098.9448 deg
RA of node: 122.5043 deg
Eccentricity: 0.0015280
Arg of perigee: 093.7758 deg
Mean anomaly: 014.7515 deg
Mean motion: 14.11727431 rev/day
Decay rate: 1.29e-06 rev/day^2
Epoch rev: 27730
Checksum: 302
/EX
SB KEPS @ AMSAT $ORB14177.M
Orbital Elements 14177.MISC
HR AMSAT ORBITAL ELEMENTS FOR MANNED AND MISCELLANEOUS SATELLITES
FROM WA5QGD FORT WORTH,TX June 26, 2014
BID: ORB14177.M
TO ALL RADIO AMATEURS BT
Satellite: HUBBLE
Catalog number: 20580
Epoch time: 14176.88421088
Element set: 42
Inclination: 028.4705 deg
RA of node: 339.9582 deg
Eccentricity: 0.0003308
Arg of perigee: 020.1905 deg
Mean anomaly: 103.6652 deg
Mean motion: 15.05474319 rev/day
Decay rate: 7.94e-06 rev/day^2
Epoch rev: 12603
Checksum: 278
Satellite: ISS
Catalog number: 25544
Epoch time: 14177.90493941
Element set: 577
Inclination: 051.6480 deg
RA of node: 051.3869 deg
Eccentricity: 0.0004110
Arg of perigee: 175.2517 deg
Mean anomaly: 299.5222 deg
Mean motion: 15.50278650 rev/day
Decay rate: 4.08e-06 rev/day^2
Epoch rev: 89283
Checksum: 309
Satellite: CO-58
Catalog number: 28895
Epoch time: 14177.79252303
Element set: 803
Inclination: 097.8345 deg
RA of node: 019.1616 deg
Eccentricity: 0.0016685
Arg of perigee: 344.9836 deg
Mean anomaly: 015.0869 deg
Mean motion: 14.61906824 rev/day
Decay rate: 2.39e-06 rev/day^2
Epoch rev: 46165
Checksum: 346
Satellite: FALCON
Catalog number: 30776
Epoch time: 14177.07746502
Element set: 897
Inclination: 035.4296 deg
RA of node: 058.7038 deg
Eccentricity: 0.0001806
Arg of perigee: 337.0943 deg
Mean anomaly: 170.3718 deg
Mean motion: 15.16381932 rev/day
Decay rate: 2.663e-05 rev/day^2
Epoch rev: 40208
Checksum: 307
Satellite: MAST
Catalog number: 31126
Epoch time: 14176.80856605
Element set: 77
Inclination: 097.9143 deg
RA of node: 157.2516 deg
Eccentricity: 0.0091092
Arg of perigee: 328.1675 deg
Mean anomaly: 149.0022 deg
Mean motion: 14.55295181 rev/day
Decay rate: 1.74e-06 rev/day^2
Epoch rev: 38164
Checksum: 299
Satellite: CAPE1
Catalog number: 31130
Epoch time: 14177.49846563
Element set: 85
Inclination: 097.9354 deg
RA of node: 154.5700 deg
Eccentricity: 0.0098269
Arg of perigee: 344.1505 deg
Mean anomaly: 015.6623 deg
Mean motion: 14.54463484 rev/day
Decay rate: 2.92e-06 rev/day^2
Epoch rev: 38116
Checksum: 309
Satellite: COMPASS
Catalog number: 32787
Epoch time: 14177.71566865
Element set: 967
Inclination: 097.7010 deg
RA of node: 230.9749 deg
Eccentricity: 0.0015167
Arg of perigee: 146.1534 deg
Mean anomaly: 214.0654 deg
Mean motion: 14.87943644 rev/day
Decay rate: 1.052e-05 rev/day^2
Epoch rev: 33360
Checksum: 318
Satellite: AAUSAT2
Catalog number: 32788
Epoch time: 14177.11034613
Element set: 952
Inclination: 097.7022 deg
RA of node: 231.3852 deg
Eccentricity: 0.0014657
Arg of perigee: 146.2349 deg
Mean anomaly: 213.9805 deg
Mean motion: 14.88656163 rev/day
Decay rate: 1.004e-05 rev/day^2
Epoch rev: 33357
Checksum: 298
Satellite: DO-64
Catalog number: 32789
Epoch time: 14176.79327669
Element set: 992
Inclination: 097.7213 deg
RA of node: 237.6592 deg
Eccentricity: 0.0013868
Arg of perigee: 133.3161 deg
Mean anomaly: 293.5646 deg
Mean motion: 14.93459730 rev/day
Decay rate: 2.494e-05 rev/day^2
Epoch rev: 33378
Checksum: 366
Satellite: CO-66
Catalog number: 32791
Epoch time: 14177.07493495
Element set: 949
Inclination: 097.7006 deg
RA of node: 229.0996 deg
Eccentricity: 0.0015710
Arg of perigee: 151.5315 deg
Mean anomaly: 208.6762 deg
Mean motion: 14.86600181 rev/day
Decay rate: 6.32e-06 rev/day^2
Epoch rev: 33337
Checksum: 324
Satellite: RS-30
Catalog number: 32953
Epoch time: 14177.56714416
Element set: 46
Inclination: 082.5017 deg
RA of node: 195.3772 deg
Eccentricity: 0.0019929
Arg of perigee: 132.9194 deg
Mean anomaly: 227.3560 deg
Mean motion: 12.43048535 rev/day
Decay rate: 1.0e-07 rev/day^2
Epoch rev: 27642
Checksum: 298
Satellite: METEOR-M
Catalog number: 35865
Epoch time: 14177.72498869
Element set: 658
Inclination: 098.5492 deg
RA of node: 224.8483 deg
Eccentricity: 0.0003409
Arg of perigee: 071.9428 deg
Mean anomaly: 288.2111 deg
Mean motion: 14.21924135 rev/day
Decay rate: -3.6e-07 rev/day^2
Epoch rev: 24769
Checksum: 338
Satellite: RS-38
Catalog number: 35869
Epoch time: 14177.71726904
Element set: 581
Inclination: 098.5422 deg
RA of node: 224.6363 deg
Eccentricity: 0.0005602
Arg of perigee: 075.9209 deg
Mean anomaly: 071.2210 deg
Mean motion: 14.22214223 rev/day
Decay rate: -1.0e-08 rev/day^2
Epoch rev: 24772
Checksum: 285
Satellite: JUGNU
Catalog number: 37839
Epoch time: 14177.44432318
Element set: 643
Inclination: 019.9597 deg
RA of node: 198.8310 deg
Eccentricity: 0.0019210
Arg of perigee: 086.0875 deg
Mean anomaly: 059.7541 deg
Mean motion: 14.12314978 rev/day
Decay rate: 3.10e-06 rev/day^2
Epoch rev: 13986
Checksum: 320
Satellite: SRMSAT
Catalog number: 37841
Epoch time: 14176.45894975
Element set: 646
Inclination: 019.9701 deg
RA of node: 224.2947 deg
Eccentricity: 0.0012210
Arg of perigee: 015.0995 deg
Mean anomaly: 109.6014 deg
Mean motion: 14.10355780 rev/day
Decay rate: 2.93e-06 rev/day^2
Epoch rev: 13952
Checksum: 299
Satellite: RAX-2
Catalog number: 37853
Epoch time: 14177.69152233
Element set: 842
Inclination: 101.7129 deg
RA of node: 211.8650 deg
Eccentricity: 0.0216230
Arg of perigee: 029.3274 deg
Mean anomaly: 081.3514 deg
Mean motion: 14.89551944 rev/day
Decay rate: 3.047e-05 rev/day^2
Epoch rev: 14407
Checksum: 289
Satellite: AUBIESAT
Catalog number: 37854
Epoch time: 14176.66393122
Element set: 823
Inclination: 101.7172 deg
RA of node: 212.2371 deg
Eccentricity: 0.0214183
Arg of perigee: 029.5056 deg
Mean anomaly: 085.9389 deg
Mean motion: 14.90873188 rev/day
Decay rate: 3.236e-05 rev/day^2
Epoch rev: 14397
Checksum: 311
Satellite: HRBE
Catalog number: 37855
Epoch time: 14177.04389899
Element set: 831
Inclination: 101.7174 deg
RA of node: 212.1491 deg
Eccentricity: 0.0216260
Arg of perigee: 029.7021 deg
Mean anomaly: 001.6075 deg
Mean motion: 14.90185253 rev/day
Decay rate: 3.345e-05 rev/day^2
Epoch rev: 14400
Checksum: 278
Satellite: RS-39
Catalog number: 38051
Epoch time: 14177.74150796
Element set: 669
Inclination: 051.6242 deg
RA of node: 174.6391 deg
Eccentricity: 0.0001031
Arg of perigee: 272.0950 deg
Mean anomaly: 251.8235 deg
Mean motion: 15.61443233 rev/day
Decay rate: 3.0730e-04 rev/day^2
Epoch rev: 13560
Checksum: 284
